Theta_e
297 297 297 296 298 300 300 301 302 304 303 301 300 302 306 307 305 303 305 311 310 310 310 310 310 310 310 309 308 310 310 309 313 312 310 309 309 310 309 303 303 301 303 309
298 297 297 296 293 300 300 300 301 302 302 299 300 305 304 307 306 306 312 312 309 310 311 311 310 309 309 309 308 309 309 309 308 312 311 310 311 309 310 307 307 303 305 308
297 297 297 295 293 301 301 301 300 301 302 302 305 307 309 308 306 307 311 310 309 311 312 311 312 311 311 309 309 310 309 310 308 308 309 309 309 311 310 309 308 305 306 307
296 297 296 295 295 301 301 301 301 301 303 301 302 305 307 308 311 312 311 310 312 313 313 311 311 311 311 311 312 309 307 310 309 309 310 310 311 310 310 309 310 309 309 308
296 296 294 294 294 300 301 301 301 301 302 304 305 306 307 309 313 313 312 311 313 311 312 312 312 311 310 311 310 310 308 308 309 309 309 309 309 309 309 310 310 310 310 310
295 296 294 292 295 298 299 301 301 301 304 306 306 308 308 311 312 311 312 312 311 311 310 309 309 310 309 309 308 309 310 309 309 305 308 308 307 309 309 310 309 310 311 310
295 295 295 293 293 297 298 300 301 302 306 306 307 308 309 310 312 312 312 311 311 310 310 310 310 309 308 308 309 308 308 310 311 305 307 310 307 311 309 309 310 310 310 310
296 295 295 295 292 296 297 299 300 301 304 304 306 307 309 309 311 311 310 310 310 310 310 308 310 310 310 310 310 309 309 311 311 309 309 309 312 315 315 315 315 316 317 316
295 295 295 295 294 293 297 300 300 301 302 304 304 306 308 307 309 309 311 311 310 310 307 309 310 312 310 310 310 310 310 310 311 311 313 312 312 314 314 313 319 315 317 316
295 295 294 294 294 294 294 298 299 300 301 302 305 307 308 309 309 306 310 311 311 310 307 307 310 312 310 308 308 310 313 312 312 312 312 308 306 308 314 320 315 314 316 318
295 296 295 294 294 295 294 295 300 299 300 301 304 308 311 311 310 310 309 308 308 308 309 310 308 309 309 307 306 307 309 310 311 311 310 308 306 313 315 314 313 313 313 315
294 295 295 294 294 295 295 294 299 299 299 301 305 308 310 310 312 311 310 309 308 308 308 306 306 310 308 307 311 306 310 307 307 306 306 305 308 310 310 310 312 312 313 313
295 294 295 294 294 294 296 295 295 296 299 302 306 308 309 310 310 311 311 311 310 310 310 309 309 310 305 310 307 307 306 306 306 307 307 305 308 309 310 311 312 311 311 311
295 294 295 296 295 294 295 296 295 298 299 301 308 310 310 311 310 310 311 310 310 310 310 309 310 312 308 310 310 310 308 306 306 305 305 308 312 312 313 313 312 310 309 308
295 296 296 295 295 295 295 295 295 296 298 302 305 308 309 309 310 310 310 310 310 310 309 310 310 310 310 306 306 307 308 307 307 308 309 310 312 314 313 313 312 310 308 309
295 295 296 297 295 297 295 295 294 295 295 300 306 309 309 310 310 310 310 310 310 310 310 309 310 309 309 312 313 310 311 311 311 310 312 312 313 313 313 312 311 309 308 308
294 297 297 297 297 297 295 300 301 300 299 301 306 308 310 309 310 309 309 310 310 310 309 309 309 311 311 312 309 310 311 312 313 312 312 313 313 313 312 311 309 307 307 307
297 298 298 298 297 296 295 300 300 301 302 303 304 308 306 309 310 309 309 307 308 308 308 309 310 310 309 312 310 310 310 311 311 311 311 311 312 312 311 310 308 306 306 305
298 297 298 298 297 295 297 300 302 302 302 304 306 307 304 309 310 310 308 307 308 307 308 309 311 311 311 304 302 303 303 304 306 309 310 310 310 309 309 308 306 305 305 303
299 297 298 299 298 299 301 303 302 302 304 304 306 308 309 309 309 310 309 307 305 308 308 307 310 311 301 299 301 301 302 303 304 305 308 310 309 309 308 308 306 305 304 303
300 300 300 301 300 302 303 304 304 304 306 306 308 308 308 308 308 309 307 305 302 308 307 307 307 308 299 298 299 301 302 303 304 304 305 307 308 307 308 307 306 303 303 303
300 300 301 302 302 304 304 305 305 306 307 308 307 307 308 308 308 307 305 305 303 309 303 307 310 301 297 298 298 300 301 301 303 304 305 306 307 308 308 307 304 303 303 302
299 300 300 302 303 304 306 307 306 306 305 305 306 305 307 307 307 304 304 306 308 303 307 308 302 297 297 297 297 299 300 301 301 303 305 306 307 309 308 306 304 304 304 303
301 300 302 303 305 303 299 297 299 302 303 303 304 304 305 305 305 304 307 304 303 307 307 305 298 295 295 296 296 297 299 300 300 301 303 305 306 307 307 307 307 304 304 305
299 299 302 303 302 301 301 301 302 301 302 303 303 303 303 303 304 304 304 306 306 307 307 299 295 295 295 295 296 297 298 299 299 301 301 302 303 304 304 304 306 306 304 303
297 298 299 300 300 300 300 301 301 302 302 303 304 302 304 305 304 305 307 307 307 303 296 295 295 295 295 295 296 297 297 299 300 300 300 301 301 301 301 302 301 302 304 302
296 296 298 299 299 300 300 300 300 301 302 302 302 305 305 299 303 305 302 305 299 295 295 294 295 295 294 294 296 296 298 299 300 300 300 300 300 300 300 300 300 299 299 299
Wind_Speed
26 25 26 26 27 26 22 8 2 8 9 2 1 2 4 8 5 3 6 4 6 4 5 4 3 6 3 8 6 4 2 4 3 4 1 6 5 6 5 4 4 1 3 7
26 24 24 25 26 21 16 5 4 4 11 2 3 4 4 3 1 4 3 1 3 3 4 5 2 5 5 15 5 6 3 2 3 3 0 2 4 5 4 3 3 5 4 5
22 25 23 24 23 17 7 4 3 5 4 2 2 4 3 4 4 5 7 1 8 5 5 4 4 3 5 10 6 9 4 2 4 5 3 4 4 6 10 6 3 4 8 8
23 24 21 22 20 13 4 5 2 3 4 3 3 2 5 5 3 3 10 5 6 6 3 5 4 3 4 7 6 4 3 2 2 3 5 2 5 5 11 12 13 7 2 12
21 24 19 18 18 15 10 4 4 6 5 11 3 1 4 6 6 7 6 7 5 7 3 3 6 7 3 2 4 3 3 1 3 4 5 6 6 9 10 14 15 16 18 24
20 20 20 14 14 15 8 9 10 4 7 4 2 2 4 9 8 13 11 9 9 13 5 12 12 8 9 8 5 3 3 3 0 4 4 5 6 10 14 9 10 16 15 21
21 17 18 14 11 12 10 11 8 4 3 3 3 5 5 4 4 2 4 7 3 3 6 19 18 19 14 8 6 6 4 3 1 3 3 1 6 2 4 11 10 12 16 18
19 19 15 15 9 8 9 7 5 3 3 5 5 8 2 4 8 4 6 10 8 3 5 4 4 3 3 4 3 4 4 2 1 1 3 7 3 3 5 6 4 5 9 11
15 17 17 13 10 7 8 4 6 3 4 2 5 4 5 1 2 4 3 6 7 3 3 2 3 3 3 3 2 2 4 3 2 2 2 4 3 2 6 3 3 4 5 6
13 17 16 15 12 8 7 4 5 3 4 6 3 3 3 2 3 2 1 1 4 5 2 2 2 1 4 4 5 4 3 2 4 3 2 7 8 6 6 1 4 3 8 13
12 14 16 14 11 11 9 6 3 2 4 15 7 5 4 3 2 2 3 2 2 2 2 2 2 1 2 3 4 5 6 5 3 3 3 8 5 2 3 3 9 15 17 16
14 13 16 15 12 9 10 9 7 7 8 9 9 10 7 5 2 1 6 1 2 3 2 1 1 1 1 2 2 1 4 6 4 7 6 7 6 7 16 18 20 15 11 10
17 13 16 16 15 13 12 13 8 9 7 11 8 7 9 9 6 5 3 4 5 5 4 3 1 3 2 3 4 4 4 8 3 2 5 12 22 20 21 19 12 10 9 8
17 17 17 16 16 13 13 14 9 9 5 4 2 3 4 6 8 11 11 6 6 5 7 3 1 2 5 3 2 2 5 8 5 5 8 15 11 4 4 7 9 10 8 5
16 18 19 15 11 10 14 15 13 13 6 4 7 6 7 8 7 8 10 12 10 6 4 2 3 3 2 3 1 4 7 7 4 5 9 6 7 4 7 8 9 8 6 4
17 15 14 11 13 10 9 4 10 14 16 4 2 2 4 4 5 4 8 11 13 9 6 4 4 6 5 3 3 5 8 12 14 9 10 11 10 9 10 10 9 6 4 3
17 15 15 11 12 14 11 4 5 12 12 3 3 3 2 6 6 4 7 10 7 7 6 5 4 4 9 2 3 6 18 15 7 5 6 7 11 8 9 9 7 4 3 4
12 13 6 9 12 8 12 9 9 12 9 4 2 3 2 6 5 3 5 3 4 6 3 4 4 5 6 3 3 9 12 11 3 10 8 9 9 8 8 7 6 5 4 6
3 5 5 7 7 5 7 4 10 13 5 3 2 2 3 4 3 4 5 4 2 4 2 2 2 3 2 5 12 13 15 12 17 16 12 9 8 9 10 10 9 8 7 9
3 4 2 2 3 6 6 5 7 7 6 5 3 3 2 4 4 3 1 2 2 2 2 2 3 0 7 13 13 13 16 16 15 16 14 10 11 12 13 13 11 9 9 11
2 2 2 1 5 5 4 5 5 6 3 6 6 8 3 3 2 2 3 1 1 2 1 1 2 2 4 15 15 14 13 13 12 13 16 15 16 15 12 12 12 11 11 11
2 6 8 5 5 5 3 3 2 3 3 3 2 3 4 3 3 2 2 1 1 2 1 1 1 1 12 15 18 16 13 13 10 8 9 9 10 10 9 9 11 11 10 11
2 3 2 3 3 3 4 5 3 2 3 3 2 1 1 2 2 1 1 2 1 1 1 1 2 7 15 17 18 16 13 11 9 7 5 4 4 3 3 6 9 9 10 12
3 3 3 3 3 3 3 2 2 2 2 4 2 1 0 1 1 1 2 0 0 1 1 1 1 12 15 15 15 15 16 14 11 10 7 3 1 3 5 6 7 10 13 15
3 2 3 3 1 1 1 4 3 3 3 3 2 1 0 1 1 1 1 1 1 1 2 1 6 8 11 14 15 15 15 14 12 10 7 4 2 3 4 8 9 11 13 14
3 4 3 2 1 1 1 3 3 2 2 2 2 1 1 2 1 1 3 1 3 3 2 0 3 7 11 14 15 14 13 13 12 10 8 5 3 4 4 7 10 12 13 15
3 3 4 4 3 1 1 2 2 1 1 1 1 2 2 1 1 2 1 1 2 4 4 1 2 5 9 13 14 14 13 13 12 10 8 6 4 4 5 7 9 11 12 14
Wind_Direction
337 341 346 350 350 357 358 16 41 36 24 70 342 290 290 320 9 301 253 255 91 110 110 109 109 178 235 171 138 143 29 104 134 190 227 175 166 181 168 132 256 77 137 269
340 341 347 353 356 1 350 16 337 327 350 63 338 305 331 262 279 289 272 263 98 123 110 112 118 183 243 172 137 154 188 103 91 109 33 126 199 192 169 137 114 198 139 260
342 340 348 354 0 3 12 19 360 339 346 335 323 338 292 296 302 262 264 67 114 96 68 43 133 104 30 140 160 161 107 140 144 182 204 132 196 190 199 168 172 170 230 287
342 333 338 353 2 13 25 36 14 9 332 330 287 340 299 322 353 317 16 58 79 103 105 108 102 88 82 58 123 78 94 149 20 239 250 253 208 211 207 208 217 203 175 243
345 343 343 354 3 13 34 46 4 338 282 294 274 179 328 333 11 29 40 72 46 69 140 179 147 133 100 161 44 78 30 81 18 293 272 251 256 232 226 224 231 247 256 269
344 346 349 358 7 18 26 11 2 317 292 323 16 45 328 359 6 18 125 131 85 64 12 90 106 128 127 152 124 107 108 130 175 277 343 327 296 232 217 221 223 230 247 251
338 347 349 352 4 16 8 7 355 323 304 326 11 355 37 309 348 64 49 54 67 101 85 84 70 73 80 93 73 118 127 151 186 262 360 259 241 256 192 205 238 233 253 265
334 339 344 346 348 357 358 355 7 324 298 311 318 350 204 325 63 47 45 48 82 101 57 67 72 16 36 42 84 112 116 124 290 198 257 287 281 195 175 176 272 213 235 260
324 330 336 338 335 339 342 5 2 320 312 257 336 314 321 344 26 32 63 64 41 61 73 80 135 177 154 162 95 22 88 93 136 209 275 254 257 0 170 117 281 249 239 274
322 328 331 331 333 319 322 316 322 325 286 285 326 247 294 338 67 96 51 347 9 17 81 111 171 182 138 159 184 172 164 178 218 241 294 287 256 256 160 103 231 243 255 258
302 312 320 319 321 319 299 285 283 341 275 284 259 261 334 347 66 146 163 63 336 39 74 130 231 193 248 126 173 176 179 161 189 168 207 265 219 165 194 256 316 293 288 263
312 303 309 317 303 296 290 283 252 283 279 268 275 254 254 263 70 97 161 205 173 167 110 45 45 243 324 179 243 203 208 187 184 185 213 243 271 268 301 305 299 299 286 287
306 300 299 300 290 277 258 267 263 268 273 292 264 247 224 239 210 218 211 215 199 180 144 145 141 263 151 236 245 187 244 185 216 117 251 246 266 277 282 294 302 308 300 278
298 298 292 284 283 264 244 253 244 238 274 279 267 216 217 221 225 229 232 242 198 167 172 144 191 251 194 230 262 236 212 142 208 255 287 288 289 280 255 292 313 317 312 282
303 298 295 286 268 245 243 249 236 233 237 307 291 286 256 241 243 235 234 238 227 190 171 180 199 229 261 265 143 240 199 203 180 230 240 231 271 275 304 306 314 308 304 278
303 302 298 275 238 238 230 243 221 215 221 286 279 281 244 236 226 252 255 235 225 203 195 185 213 221 188 259 246 242 251 253 255 256 288 265 280 272 275 287 296 301 289 244
312 311 294 249 219 220 207 196 127 198 194 240 283 289 239 229 229 249 264 245 231 203 188 207 210 229 202 247 247 313 327 326 303 323 284 269 263 269 289 279 278 277 242 194
333 339 339 189 199 213 233 185 150 172 184 234 270 265 317 196 207 227 214 233 206 207 222 227 200 184 188 254 317 344 347 350 347 352 329 296 283 264 264 263 257 239 205 186
345 47 70 151 186 190 230 186 186 188 208 280 233 212 250 189 222 226 204 213 198 208 218 238 249 190 191 5 337 336 336 329 307 304 306 304 283 283 270 256 245 234 212 193
164 197 240 222 194 192 179 149 158 176 219 230 254 221 248 194 209 206 214 165 221 226 182 214 210 99 107 8 342 328 320 311 306 304 290 281 287 295 278 260 252 243 224 205
350 275 270 271 193 197 206 193 179 191 227 214 226 213 201 222 209 251 212 186 211 246 154 224 179 138 345 336 343 346 336 325 309 287 278 276 278 290 283 252 239 227 217 216
196 296 292 164 206 215 218 195 175 210 221 206 187 193 203 218 231 212 197 220 191 257 122 216 131 74 341 348 352 354 346 342 330 301 286 271 273 281 273 236 220 213 217 212
121 252 254 222 188 213 205 197 197 218 211 186 184 193 213 213 227 250 134 234 205 163 201 86 72 334 353 355 352 351 357 352 355 350 319 295 276 262 224 215 210 214 208 197
223 223 240 209 182 240 206 187 192 133 132 134 130 76 60 286 272 204 247 174 188 114 92 191 8 344 345 351 354 355 357 2 4 8 12 6 291 267 245 219 218 208 194 192
232 207 241 232 227 323 151 120 103 88 100 128 113 80 347 309 282 215 310 207 221 202 137 147 340 352 356 1 3 2 3 2 5 6 6 359 306 267 253 234 226 220 213 208
237 228 282 269 259 251 194 126 121 111 142 111 99 95 294 247 247 239 227 184 213 167 158 118 14 26 25 20 15 13 9 4 4 2 360 354 331 286 256 238 229 227 220 215
232 240 239 256 287 324 141 140 164 182 169 109 102 223 230 32 238 257 256 207 126 153 148 79 67 37 15 6 8 13 14 15 10 4 356 346 334 300 260 241 231 224 218 212